Bettles, AK

05:37 AM AKDT die 23o April, anno 2018 (GMT -0800)
Bettles | | Change Station

Elev 643 ft 66.92 °N, 151.53 °W | Updated 44 minutes ago

Serena
Serena
15 °F
Feels Like 5 °F
N
7
Ventus Variabilis Ventus from Magis Aquilo quam Zephyrus

Hodie
High -- | Low -- °F
--% Chance of Precip.
Yesterday
High -- | Low -- °F
Precip. -- in
Pressio 29.87 in
Visibilitas 10.0 milia passuum
Clouds Serena
Frigus Venti 5 °F
Frigus in quo Ros apparet 2 °F
Umor 56%
Rainfall 0.00 in
Snow Depth Not available.
5:47 AM 10:24 PM
First Quarter, 58% visible
METAR PABT 231253Z 34006KT 10SM CLR M09/M17 A2982 RMK AO2 SLP115 T10941167
Pressio 29.87 in
Visibilitas 10.0 milia passuum
Clouds Serena
Frigus Venti 5 °F
Frigus in quo Ros apparet 2 °F
Umor 56%
Rainfall 0.00 in
Snow Depth Not available.
5:47 AM 10:24 PM
First Quarter, 58% visible
METAR PABT 231253Z 34006KT 10SM CLR M09/M17 A2982 RMK AO2 SLP115 T10941167

Get Severe Weather Alerts

Thanks for signing up!

Be on the lookout for a verification email in your inbox.

You'll start receiving the daily forecast at 6 AM.

×

10-Day Weather Forecast

Almanac

Astronomy

Apr. 23, 2018 Rise Set
Actual Time
Civil Twilight
Nautical Twilight
Astronomical Twilight
Moon
Length Of Visible Light
Length of Day
Tomorrow will be .
, % of the Moon is Illuminated

Today's Extremes

State Highs State Lows

Community

WunderPhotos

Category 6

Welcome to Category 6. This is the collective home for Weather Underground's featured writeups by Dr. Jeff Masters (right), Bob Henson (left), Chris Burt, and other regular contributors.

Nearby

Air Quality

  Air Quality AQ Index Pollutant
Not available.

Snow Depth

Station Depth Elevation

Earthquake Activity

City Distance Mag. Time & Date
Minimum magnitude displayed is 2.5.

Coastal Water Temperatures

Locus Calor

Stations

Nearby Weather Stations

Station Location Temp Frigus Venti Frigus in quo Ros apparet Umor Ventus Precip. Elev Renovata Type
                   

Watches & Warnings

There are currently no watches in effect.